Tillbaka till svenska Fidonet
English   Information   Debug  
FILM   0/18
FNEWS_PUBLISH   4569
FN_SYSOP   41808
FN_SYSOP_OLD1   71952
FTP_FIDO   0/2
FTSC_PUBLIC   0/13887
FUNNY   0/4886
GENEALOGY.EUR   0/71
GET_INFO   105
GOLDED   0/408
HAM   0/16128
HOLYSMOKE   0/6791
HOT_SITES   0/1
HTMLEDIT   0/71
HUB203   466
HUB_100   264
HUB_400   39
HUMOR   0/29
IC   0/2851
INTERNET   0/424
INTERUSER   0/3
IP_CONNECT   719
JAMNNTPD   0/233
JAMTLAND   0/47
KATTY_KORNER   0/41
LAN   0/16
LINUX-USER   0/19
LINUXHELP   0/1155
LINUX   0/22169
LINUX_BBS   0/957
mail   18.68
mail_fore_ok   249
MENSA   0/341
MODERATOR   0/102
MONTE   0/992
MOSCOW_OKLAHOMA   0/1245
MUFFIN   0/783
MUSIC   0/321
N203_STAT   938
N203_SYSCHAT   313
NET203   321
NET204   69
NET_DEV   0/10
NORD.ADMIN   0/101
NORD.CHAT   0/2572
NORD.FIDONET   189
NORD.HARDWARE   0/28
NORD.KULTUR   0/114
NORD.PROG   0/32
NORD.SOFTWARE   0/88
NORD.TEKNIK   0/58
NORD   0/453
OCCULT_CHAT   0/93
OS2BBS   0/787
OS2DOSBBS   0/580
OS2HW   0/42
OS2INET   0/37
OS2LAN   0/134
OS2PROG   0/36
OS2REXX   0/113
OS2USER-L   207
OS2   0/4804
OSDEBATE   11889/18996
PASCAL   0/490
PERL   0/457
PHP   0/45
POINTS   0/405
POLITICS   0/29554
POL_INC   0/14731
PSION   103
R20_ADMIN   1129
R20_AMATORRADIO   0/2
R20_BEST_OF_FIDONET   14
R20_CHAT   0/893
R20_DEPP   0/3
R20_DEV   399
R20_ECHO2   1491
R20_ECHOPRES   0/35
R20_ESTAT   0/719
R20_FIDONETPROG...
...RAM.MYPOINT
  0/2
R20_FIDONETPROGRAM   0/22
R20_FIDONET   0/248
R20_FILEFIND   0/24
R20_FILEFOUND   0/22
R20_HIFI   0/3
R20_INFO2   3382
R20_INTERNET   0/12940
R20_INTRESSE   0/60
R20_INTR_KOM   0/99
R20_KANDIDAT.CHAT   42
R20_KANDIDAT   28
R20_KOM_DEV   112
R20_KONTROLL   0/13360
R20_KORSET   0/18
R20_LOKALTRAFIK   0/24
R20_MODERATOR   0/1852
R20_NC   76
R20_NET200   245
R20_NETWORK.OTH...
...ERNETS
  0/13
R20_OPERATIVSYS...
...TEM.LINUX
  0/44
R20_PROGRAMVAROR   0/1
R20_REC2NEC   534
R20_SFOSM   0/341
R20_SF   0/108
R20_SPRAK.ENGLISH   0/1
R20_SQUISH   107
R20_TEST   2
R20_WORST_OF_FIDONET   20
RAR   0/9
RA_MULTI   106
RA_UTIL   0/162
REGCON.EUR   0/2066
REGCON   0/13
SCIENCE   0/1206
SF   0/239
SHAREWARE_SUPPORT   0/5146
SHAREWRE   0/14
SIMPSONS   0/169
STATS_OLD1   0/2539.065
STATS_OLD2   0/2530
STATS_OLD3   0/2395.095
STATS_OLD4   0/1692.25
SURVIVOR   0/495
SYSOPS_CORNER   0/3
SYSOP   0/84
TAGLINES   0/112
TEAMOS2   0/4530
TECH   0/2617
TEST.444   0/105
TRAPDOOR   0/19
TREK   0/755
TUB   0/290
UFO   0/40
UNIX   0/1316
USA_EURLINK   0/102
USR_MODEMS   0/1
VATICAN   0/2740
VIETNAM_VETS   0/14
VIRUS   0/378
VIRUS_INFO   0/201
VISUAL_BASIC   0/473
WHITEHOUSE   0/5187
WIN2000   0/101
WIN32   0/30
WIN95   0/4291
WIN95_OLD1   0/70272
WINDOWS   0/1517
WWB_SYSOP   0/419
WWB_TECH   0/810
ZCC-PUBLIC   0/1
ZEC   4

 
4DOS   0/134
ABORTION   0/7
ALASKA_CHAT   0/506
ALLFIX_FILE   0/1313
ALLFIX_FILE_OLD1   0/7997
ALT_DOS   0/152
AMATEUR_RADIO   0/1039
AMIGASALE   0/14
AMIGA   0/331
AMIGA_INT   0/1
AMIGA_PROG   0/20
AMIGA_SYSOP   0/26
ANIME   0/15
ARGUS   0/924
ASCII_ART   0/340
ASIAN_LINK   0/651
ASTRONOMY   0/417
AUDIO   0/92
AUTOMOBILE_RACING   0/105
BABYLON5   0/17862
BAG   135
BATPOWER   0/361
BBBS.ENGLISH   0/382
BBSLAW   0/109
BBS_ADS   0/5290
BBS_INTERNET   0/507
BIBLE   0/3563
BINKD   0/1119
BINKLEY   0/215
BLUEWAVE   0/2173
CABLE_MODEMS   0/25
CBM   0/46
CDRECORD   0/66
CDROM   0/20
CLASSIC_COMPUTER   0/378
COMICS   0/15
CONSPRCY   0/899
COOKING   36219
COOKING_OLD1   0/24719
COOKING_OLD2   0/40862
COOKING_OLD3   0/37489
COOKING_OLD4   0/35496
COOKING_OLD5   9370
C_ECHO   0/189
C_PLUSPLUS   0/31
DIRTY_DOZEN   0/201
DOORGAMES   0/2115
DOS_INTERNET   0/196
duplikat   6002
ECHOLIST   0/18295
EC_SUPPORT   0/318
ELECTRONICS   0/359
ELEKTRONIK.GER   1534
ENET.LINGUISTIC   0/13
ENET.POLITICS   0/4
ENET.SOFT   0/11701
ENET.SYSOP   34076
ENET.TALKS   0/32
ENGLISH_TUTOR   0/2000
EVOLUTION   0/1335
FDECHO   0/217
FDN_ANNOUNCE   0/7068
FIDONEWS   24344
FIDONEWS_OLD1   0/49742
FIDONEWS_OLD2   0/35949
FIDONEWS_OLD3   0/30874
FIDONEWS_OLD4   0/37224
FIDO_SYSOP   12854
FIDO_UTIL   0/180
FILEFIND   0/209
FILEGATE   0/212
Möte HAM, 16128 texter
 lista första sista föregående nästa
Text 4559, 908 rader
Skriven 2011-06-24 00:02:31 av Amsat List (1:323/120.0)
Ärende: [keps]  orb11174.amsa
=============================
[keps]  orb11174.amsa

Return-Path: <keps-bounces@amsat.org>
X-Rcpt: craig.healy@chowda.com
X-UIDL: 1308886453.1200

SB KEPS @ AMSAT  $ORB11174.O
Orbital Elements  11174.OSCAR

HR AMSAT ORBITAL ELEMENTS FOR OSCAR SATELLITES
FROM WA5QGD FORT WORTH,TX June 23, 2011
Send Subscribe/unsubscribe to KEPS at http://www.amsat.org/mailman/listinfo/kep
BID: ORB11174.O
TO ALL RADIO AMATEURS BT

Satellite: AO-07
Catalog number: 07530
Epoch time:      11173.58288116
Element set:    0111
Inclination:      101.3914 deg
RA of node:       179.9114 deg
Eccentricity:    0.0011599
Arg of perigee:   269.3927 deg
Mean anomaly:     090.5814 deg
Mean motion:   12.53582847 rev/day
Decay rate:       -2.7e-07 rev/day^2
Epoch rev:           67486
Checksum:              315

Satellite: FO-29
Catalog number: 24278
Epoch time:      11173.89703591
Element set:    0604
Inclination:      098.5457 deg
RA of node:       317.2526 deg
Eccentricity:    0.0349653
Arg of perigee:   242.3338 deg
Mean anomaly:     114.1903 deg
Mean motion:   13.52962642 rev/day
Decay rate:        3.5e-07 rev/day^2
Epoch rev:           73323
Checksum:              314

Satellite: SO-33
Catalog number: 25509
Epoch time:      11173.47527645
Element set:    0997
Inclination:      031.4351 deg
RA of node:       214.4129 deg
Eccentricity:    0.0354201
Arg of perigee:   287.7846 deg
Mean anomaly:     068.4439 deg
Mean motion:   14.28420505 rev/day
Decay rate:       3.58e-06 rev/day^2
Epoch rev:           66103
Checksum:              309

Satellite: RS-22
Catalog number: 27939
Epoch time:      11173.76056030
Element set:    0376
Inclination:      097.8456 deg
RA of node:       027.4921 deg
Eccentricity:    0.0013166
Arg of perigee:   332.8580 deg
Mean anomaly:     027.1940 deg
Mean motion:   14.63600557 rev/day
Decay rate:       2.41e-06 rev/day^2
Epoch rev:           41315
Checksum:              291

Satellite: VO-52
Catalog number: 28650
Epoch time:      11173.69868201
Element set:    0829
Inclination:      097.6411 deg
RA of node:       216.5841 deg
Eccentricity:    0.0027749
Arg of perigee:   141.5305 deg
Mean anomaly:     218.7892 deg
Mean motion:   14.82093198 rev/day
Decay rate:       8.16e-06 rev/day^2
Epoch rev:           33156
Checksum:              328

Satellite: SO-67
Catalog number: 35870
Epoch time:      11173.87509701
Element set:    0959
Inclination:      097.2802 deg
RA of node:       217.0457 deg
Eccentricity:    0.0003064
Arg of perigee:   037.9520 deg
Mean anomaly:     047.7137 deg
Mean motion:   15.20809695 rev/day
Decay rate:      1.161e-05 rev/day^2
Epoch rev:           09780
Checksum:              318

Satellite: HO-68
Catalog number: 36122
Epoch time:      11173.78724506
Element set:    0489
Inclination:      100.4147 deg
RA of node:       234.5143 deg
Eccentricity:    0.0007402
Arg of perigee:   209.5977 deg
Mean anomaly:     150.4712 deg
Mean motion:   13.16286873 rev/day
Decay rate:       -4.4e-07 rev/day^2
Epoch rev:           07297
Checksum:              302

/EX
SB KEPS @ AMSAT  $ORB11174.D
Orbital Elements  11174.MICROS

HR AMSAT ORBITAL ELEMENTS FOR THE MICROSATS
FROM WA5QGD FORT WORTH,TX June 23, 2011
Send Subscribe/unsubscribe to KEPS at http://www.amsat.org/mailman/listinfo/kep
BID: ORB11174.D
TO ALL RADIO AMATEURS BT

Satellite: UO-11
Catalog number: 14781
Epoch time:      11173.75055549
Element set:    0581
Inclination:      098.0057 deg
RA of node:       230.4445 deg
Eccentricity:    0.0009903
Arg of perigee:   116.4052 deg
Mean anomaly:     243.8175 deg
Mean motion:   14.79988370 rev/day
Decay rate:       2.71e-06 rev/day^2
Epoch rev:           46661
Checksum:              310

Satellite: AO-16
Catalog number: 20439
Epoch time:      11173.89164497
Element set:    0214
Inclination:      098.3838 deg
RA of node:       123.3189 deg
Eccentricity:    0.0011256
Arg of perigee:   142.1970 deg
Mean anomaly:     218.0004 deg
Mean motion:   14.31925232 rev/day
Decay rate:        2.2e-07 rev/day^2
Epoch rev:           11843
Checksum:              277

Satellite: LO-19
Catalog number: 20442
Epoch time:      11173.97023732
Element set:    0131
Inclination:      098.3472 deg
RA of node:       127.7247 deg
Eccentricity:    0.0012449
Arg of perigee:   136.2933 deg
Mean anomaly:     223.9235 deg
Mean motion:   14.32150806 rev/day
Decay rate:        7.2e-07 rev/day^2
Epoch rev:           11862
Checksum:              277

Satellite: AO-27
Catalog number: 22825
Epoch time:      11173.82047562
Element set:    0850
Inclination:      098.5315 deg
RA of node:       118.1596 deg
Eccentricity:    0.0007505
Arg of perigee:   259.1133 deg
Mean anomaly:     100.9213 deg
Mean motion:   14.29351389 rev/day
Decay rate:       -4.9e-07 rev/day^2
Epoch rev:           92499
Checksum:              310

Satellite: IO-26
Catalog number: 22826
Epoch time:      11173.88888031
Element set:    0591
Inclination:      098.5247 deg
RA of node:       118.6975 deg
Eccentricity:    0.0007885
Arg of perigee:   253.1597 deg
Mean anomaly:     106.8721 deg
Mean motion:   14.29614010 rev/day
Decay rate:        2.4e-07 rev/day^2
Epoch rev:           92512
Checksum:              321

Satellite: GO-32
Catalog number: 25397
Epoch time:      11173.53642638
Element set:    0511
Inclination:      098.3257 deg
RA of node:       165.8117 deg
Eccentricity:    0.0000297
Arg of perigee:   227.4538 deg
Mean anomaly:     132.6608 deg
Mean motion:   14.23210788 rev/day
Decay rate:       -8.1e-07 rev/day^2
Epoch rev:           67272
Checksum:              307

